Temp
-9 -9 -9 -9 -9 -8 -8 -8 -8 -8 -8 -8 -8 -8 -8 -8 -8 -8 -8 -8 -8 -8 -8 -8 -8 -8 -8 -8 -8 -8 -8 -8 -8 -8 -9 -9 -9 -8 -8 -9 -9 -9 -9
-9 -9 -9 -9 -9 -9 -8 -8 -8 -8 -8 -8 -8 -8 -8 -8 -8 -8 -8 -8 -8 -8 -8 -8 -8 -8 -8 -8 -8 -8 -8 -8 -8 -8 -9 -9 -9 -9 -9 -9 -9 -9 -9
-9 -9 -9 -9 -9 -8 -9 -8 -9 -8 -8 -8 -8 -8 -8 -8 -8 -8 -8 -8 -8 -8 -8 -8 -8 -8 -8 -8 -8 -8 -8 -8 -8 -9 -9 -9 -9 -9 -9 -9 -9 -9 -9
-9 -9 -9 -9 -9 -9 -9 -9 -8 -8 -8 -8 -8 -8 -8 -8 -8 -8 -8 -8 -9 -9 -9 -8 -8 -8 -8 -8 -8 -8 -8 -8 -9 -9 -9 -9 -9 -9 -9 -9 -9 -9 -9
-9 -9 -9 -9 -8 -8 -9 -9 -9 -9 -8 -9 -9 -8 -8 -8 -8 -8 -8 -9 -9 -9 -8 -8 -8 -8 -8 -8 -8 -8 -8 -9 -9 -9 -9 -9 -9 -9 -9 -10 -10 -9 -10
-9 -9 -9 -8 -8 -8 -9 -8 -8 -9 -9 -9 -8 -8 -9 -9 -9 -9 -9 -9 -9 -9 -9 -9 -9 -9 -9 -9 -9 -9 -9 -9 -9 -9 -9 -9 -10 -10 -10 -10 -10 -10 -10
-8 -8 -8 -8 -8 -8 -8 -8 -8 -8 -8 -8 -8 -8 -8 -8 -8 -8 -8 -8 -8 -8 -8 -8 -9 -9 -9 -9 -9 -9 -10 -10 -10 -9 -10 -10 -10 -10 -10 -10 -10 -11 -11
-8 -8 -8 -8 -7 -8 -8 -8 -7 -8 -8 -8 -8 -8 -8 -8 -8 -9 -9 -9 -9 -9 -9 -9 -9 -9 -9 -9 -9 -10 -9 -9 -10 -10 -10 -10 -10 -11 -11 -11 -11 -11 -11
-8 -8 -8 -7 -7 -7 -7 -8 -8 -8 -8 -8 -8 -8 -8 -9 -9 -9 -9 -9 -9 -9 -9 -10 -10 -10 -10 -10 -10 -10 -10 -10 -10 -11 -11 -11 -11 -11 -12 -12 -12 -12 -12
-8 -8 -8 -7 -7 -8 -8 -8 -8 -8 -9 -9 -9 -9 -9 -9 -9 -9 -9 -9 -10 -10 -10 -10 -10 -10 -11 -11 -11 -11 -11 -12 -12 -11 -11 -12 -12 -12 -12 -12 -12 -12 -13
-8 -8 -8 -7 -7 -7 -7 -8 -7 -8 -9 -9 -9 -9 -9 -9 -9 -10 -10 -10 -10 -10 -10 -10 -10 -11 -11 -12 -12 -12 -12 -12 -12 -12 -12 -12 -12 -12 -13 -13 -13 -13 -13
-8 -8 -7 -7 -7 -7 -8 -8 -8 -8 -9 -9 -9 -10 -10 -10 -10 -10 -10 -10 -9 -10 -10 -10 -11 -11 -12 -12 -12 -12 -12 -12 -12 -12 -12 -12 -13 -12 -13 -13 -13 -13 -13
-8 -8 -8 -8 -8 -8 -8 -9 -9 -9 -10 -10 -10 -10 -10 -10 -10 -10 -10 -10 -10 -11 -12 -12 -12 -12 -12 -12 -12 -12 -13 -12 -12 -12 -12 -12 -13 -13 -13 -14 -13 -13 -13
-8 -8 -8 -8 -9 -9 -9 -9 -9 -10 -10 -10 -10 -10 -10 -11 -11 -11 -11 -11 -12 -12 -12 -12 -12 -12 -12 -12 -12 -13 -13 -13 -13 -13 -13 -13 -13 -13 -13 -13 -13 -14 -14
-9 -9 -9 -9 -9 -9 -9 -10 -10 -10 -10 -11 -11 -11 -12 -12 -12 -12 -12 -12 -13 -13 -12 -12 -12 -12 -13 -13 -13 -13 -13 -13 -13 -13 -13 -13 -13 -13 -13 -13 -13 -14 -14
-9 -9 -9 -9 -9 -10 -10 -10 -10 -11 -11 -11 -11 -12 -12 -12 -12 -13 -13 -13 -13 -13 -13 -13 -13 -13 -13 -13 -13 -13 -13 -13 -13 -13 -13 -13 -13 -14 -14 -14 -14 -15 -15
-10 -10 -10 -10 -10 -11 -11 -11 -12 -12 -12 -12 -13 -13 -13 -13 -13 -13 -13 -13 -13 -13 -13 -13 -13 -13 -14 -14 -14 -14 -14 -14 -14 -14 -15 -15 -15 -16 -16 -16 -16 -17 -17
-10 -10 -11 -11 -11 -11 -12 -12 -13 -13 -13 -13 -13 -13 -13 -13 -13 -13 -13 -13 -13 -14 -14 -14 -14 -14 -14 -14 -14 -14 -15 -15 -16 -17 -17 -18 -18 -18 -19 -19 -19 -19 -19
-11 -11 -11 -12 -12 -12 -13 -13 -13 -13 -14 -14 -13 -13 -14 -14 -14 -14 -14 -14 -14 -14 -14 -14 -14 -15 -15 -15 -15 -16 -16 -17 -19 -19 -19 -19 -20 -20 -21 -21 -21 -21 -21
-12 -12 -12 -13 -13 -14 -14 -14 -14 -14 -14 -14 -14 -14 -14 -14 -14 -14 -14 -14 -14 -14 -14 -14 -15 -16 -17 -18 -18 -18 -19 -19 -19 -20 -20 -21 -21 -22 -23 -23 -24 -24 -24
-13 -13 -13 -14 -14 -14 -14 -14 -14 -14 -14 -14 -14 -14 -14 -14 -14 -14 -15 -15 -15 -15 -15 -15 -16 -16 -18 -19 -19 -19 -19 -19 -20 -20 -21 -22 -23 -23 -24 -24 -25 -25 -25
-14 -14 -14 -15 -15 -15 -15 -14 -14 -14 -14 -14 -14 -14 -14 -14 -15 -15 -15 -15 -15 -16 -17 -18 -19 -19 -19 -19 -20 -20 -20 -20 -21 -22 -22 -23 -23 -24 -24 -24 -25 -25 -25
-14 -15 -17 -17 -16 -15 -15 -15 -15 -15 -14 -14 -14 -15 -15 -15 -15 -15 -15 -16 -17 -18 -19 -20 -20 -20 -20 -20 -20 -20 -21 -22 -22 -22 -22 -23 -23 -23 -24 -24 -24 -25 -25
-14 -16 -16 -17 -17 -16 -15 -15 -15 -14 -15 -15 -15 -15 -15 -15 -15 -16 -17 -18 -19 -20 -20 -20 -21 -21 -21 -21 -21 -21 -22 -22 -22 -22 -22 -23 -23 -23 -23 -24 -24 -24 -24
-16 -17 -16 -17 -17 -16 -16 -15 -15 -15 -15 -15 -15 -15 -15 -16 -17 -18 -19 -20 -20 -21 -21 -21 -21 -22 -22 -22 -22 -22 -22 -23 -23 -23 -23 -23 -23 -23 -24 -24 -24 -25 -25
-16 -16 -16 -15 -15 -15 -15 -15 -15 -16 -16 -16 -16 -16 -17 -18 -19 -20 -20 -20 -21 -21 -21 -21 -22 -22 -22 -23 -23 -23 -23 -24 -24 -24 -24 -25 -25 -25 -25 -25 -25 -25 -25
Height
5842 5841 5836 5833 5830 5826 5823 5821 5819 5818 5817 5816 5817 5816 5817 5818 5821 5824 5827 5830 5831 5834 5838 5842 5845 5846 5848 5850 5850 5850 5850 5853 5854 5855 5853 5855 5855 5854 5851 5850 5850 5850 5848
5843 5840 5836 5833 5831 5828 5825 5822 5820 5818 5816 5816 5815 5816 5817 5818 5820 5822 5824 5826 5827 5829 5833 5836 5837 5840 5841 5843 5845 5844 5845 5846 5847 5845 5846 5847 5847 5847 5845 5844 5844 5844 5841
5841 5839 5834 5832 5830 5828 5825 5823 5821 5818 5816 5814 5815 5817 5817 5818 5820 5820 5821 5822 5823 5826 5828 5830 5832 5833 5835 5837 5838 5839 5839 5840 5838 5838 5838 5838 5838 5838 5836 5835 5834 5835 5833
5838 5835 5832 5829 5827 5825 5823 5822 5820 5818 5816 5816 5816 5817 5818 5818 5819 5819 5820 5820 5821 5823 5824 5826 5827 5828 5828 5829 5831 5830 5831 5831 5830 5830 5830 5830 5830 5830 5828 5826 5824 5825 5824
5836 5833 5829 5827 5825 5822 5821 5819 5819 5818 5817 5816 5816 5816 5816 5817 5816 5817 5817 5817 5818 5818 5819 5820 5821 5821 5821 5822 5822 5822 5822 5822 5822 5822 5822 5822 5822 5821 5819 5818 5816 5817 5816
5833 5831 5828 5824 5823 5820 5817 5816 5816 5816 5815 5815 5814 5814 5814 5814 5814 5814 5815 5814 5814 5813 5814 5815 5815 5814 5814 5814 5813 5813 5814 5813 5813 5813 5813 5813 5812 5813 5813 5812 5809 5809 5809
5828 5828 5824 5822 5819 5818 5816 5814 5812 5812 5812 5812 5812 5811 5811 5810 5810 5811 5810 5809 5810 5810 5809 5809 5809 5808 5808 5807 5807 5806 5805 5805 5806 5806 5805 5805 5806 5805 5804 5803 5803 5802 5801
5825 5823 5820 5818 5816 5817 5815 5813 5810 5809 5809 5808 5807 5806 5806 5806 5806 5805 5804 5806 5805 5804 5804 5803 5803 5802 5800 5800 5799 5798 5798 5798 5797 5797 5797 5796 5797 5797 5796 5795 5794 5792 5791
5821 5819 5817 5814 5814 5813 5812 5810 5808 5806 5805 5806 5804 5803 5802 5801 5801 5800 5799 5798 5797 5796 5796 5796 5795 5794 5793 5791 5792 5792 5791 5790 5789 5789 5788 5788 5788 5787 5787 5786 5783 5780 5777
5817 5815 5813 5811 5811 5809 5808 5806 5803 5801 5800 5799 5799 5799 5798 5798 5797 5795 5794 5793 5792 5791 5790 5788 5787 5786 5784 5783 5783 5782 5783 5782 5781 5781 5780 5779 5778 5777 5774 5771 5767 5765 5763
5812 5810 5808 5806 5804 5803 5802 5801 5799 5797 5795 5794 5793 5793 5792 5791 5791 5789 5787 5786 5786 5784 5782 5780 5779 5778 5776 5775 5774 5772 5771 5770 5769 5768 5767 5766 5765 5763 5760 5757 5754 5751 5750
5808 5807 5804 5802 5800 5799 5797 5795 5794 5792 5790 5789 5787 5786 5785 5784 5783 5782 5780 5778 5777 5775 5772 5770 5770 5769 5768 5766 5765 5763 5762 5760 5759 5756 5754 5753 5751 5749 5746 5743 5740 5738 5735
5803 5801 5800 5797 5795 5793 5791 5789 5787 5786 5784 5783 5781 5780 5778 5776 5775 5774 5772 5771 5769 5767 5765 5763 5762 5760 5759 5758 5755 5753 5751 5749 5747 5745 5742 5740 5738 5734 5732 5728 5725 5721 5718
5796 5795 5793 5790 5787 5786 5784 5783 5780 5778 5776 5775 5773 5772 5770 5768 5767 5766 5764 5763 5762 5761 5759 5757 5755 5753 5751 5749 5746 5743 5740 5738 5735 5733 5730 5727 5723 5720 5716 5713 5710 5706 5701
5787 5786 5785 5784 5781 5779 5778 5775 5773 5772 5770 5768 5766 5765 5763 5762 5761 5759 5758 5757 5755 5754 5752 5750 5748 5745 5743 5740 5737 5733 5730 5727 5723 5719 5714 5710 5706 5702 5697 5694 5691 5687 5683
5780 5778 5777 5775 5773 5772 5770 5768 5766 5765 5764 5762 5760 5759 5757 5755 5754 5752 5751 5750 5748 5746 5744 5741 5739 5736 5733 5730 5727 5722 5718 5712 5707 5702 5697 5692 5687 5681 5676 5672 5668 5665 5660
5772 5771 5769 5768 5767 5765 5763 5761 5759 5758 5757 5756 5754 5753 5751 5750 5749 5747 5746 5744 5741 5739 5736 5733 5729 5725 5721 5716 5711 5706 5701 5696 5690 5684 5678 5673 5667 5662 5656 5651 5647 5643 5638
5765 5763 5762 5761 5759 5757 5755 5754 5752 5752 5751 5750 5748 5748 5746 5745 5743 5741 5739 5736 5733 5729 5725 5721 5716 5711 5706 5701 5695 5689 5683 5676 5669 5663 5657 5651 5645 5640 5635 5630 5626 5623 5618
5756 5755 5753 5752 5751 5750 5748 5746 5746 5747 5747 5744 5744 5742 5740 5738 5735 5732 5729 5726 5723 5719 5715 5710 5704 5697 5689 5682 5676 5671 5665 5658 5650 5644 5640 5635 5629 5623 5618 5612 5608 5604 5599
5749 5748 5747 5745 5744 5744 5744 5743 5742 5742 5741 5737 5736 5735 5733 5731 5727 5723 5720 5715 5710 5705 5699 5696 5690 5683 5676 5667 5660 5655 5650 5645 5636 5628 5625 5619 5613 5609 5603 5596 5591 5587 5584
5741 5740 5740 5739 5738 5738 5737 5736 5736 5737 5736 5733 5731 5728 5725 5722 5718 5714 5709 5704 5699 5692 5684 5678 5672 5667 5661 5654 5646 5640 5636 5630 5622 5616 5611 5607 5602 5597 5590 5585 5581 5577 5575
5733 5732 5731 5732 5732 5731 5729 5728 5727 5726 5726 5723 5721 5718 5715 5711 5707 5702 5697 5690 5684 5677 5670 5664 5658 5652 5648 5643 5636 5629 5623 5617 5610 5606 5602 5597 5592 5587 5582 5578 5574 5571 5570
5726 5725 5725 5723 5723 5723 5722 5721 5720 5719 5717 5714 5712 5708 5704 5700 5695 5689 5684 5677 5672 5666 5660 5655 5650 5645 5639 5634 5627 5620 5613 5607 5603 5599 5596 5591 5586 5581 5577 5573 5571 5569 5568
5718 5717 5718 5719 5717 5717 5716 5715 5713 5712 5710 5707 5703 5699 5695 5690 5684 5678 5672 5667 5663 5658 5653 5647 5642 5637 5632 5627 5620 5613 5606 5601 5596 5593 5590 5586 5582 5578 5574 5571 5569 5568 5568
5708 5708 5710 5711 5712 5712 5710 5709 5707 5704 5701 5697 5694 5689 5684 5677 5672 5668 5663 5659 5655 5650 5646 5641 5637 5632 5627 5622 5616 5610 5603 5597 5593 5589 5585 5582 5578 5575 5573 5571 5569 5568 5568
5705 5705 5705 5705 5705 5704 5703 5701 5699 5695 5691 5687 5681 5676 5672 5667 5663 5658 5654 5651 5648 5644 5640 5636 5631 5626 5623 5618 5613 5607 5602 5596 5592 5588 5585 5581 5579 5576 5574 5573 5572 5571 5571
Wind_Speed
16 15 19 19 20 21 24 17 4 6 5 1 2 4 6 7 12 14 17 20 24 23 31 27 32 29 24 25 17 25 27 20 18 22 27 29 29 25 24 25 25 26 21
15 16 20 20 19 18 16 14 16 11 8 6 5 1 0 4 8 11 14 21 21 24 29 30 33 36 27 25 23 27 24 24 30 26 27 27 24 26 24 24 28 26 30
15 17 22 23 20 15 13 11 11 9 15 3 1 2 2 5 8 8 12 13 15 23 24 27 26 29 28 27 29 29 31 28 28 23 23 24 26 25 25 27 29 28 33
19 20 25 25 22 17 10 8 6 9 10 9 5 5 8 8 10 11 12 13 11 15 18 18 24 29 31 33 34 36 36 34 27 25 22 24 27 27 25 29 33 32 31
17 22 27 25 23 17 14 8 6 7 7 7 5 5 4 4 7 9 12 12 16 22 24 26 28 31 37 38 41 38 35 33 30 30 28 29 27 31 29 27 26 26 25
19 22 22 24 21 16 13 8 4 5 4 5 5 5 4 5 5 5 5 8 12 16 19 25 28 27 28 30 31 36 36 31 32 33 37 36 31 28 24 28 31 34 30
21 19 21 21 19 13 10 6 5 5 5 8 10 11 14 14 13 13 14 15 15 16 17 18 19 22 24 26 26 25 28 27 27 29 29 24 30 31 35 34 34 32 34
22 19 19 20 18 9 10 8 7 10 12 14 17 19 17 16 16 17 17 17 18 19 20 21 20 20 22 23 23 23 24 25 25 26 26 29 31 31 33 36 38 39 40
19 18 18 19 16 17 17 17 19 20 21 19 19 15 15 14 16 19 19 20 21 22 21 22 24 25 26 27 26 26 28 29 28 28 29 31 32 34 37 40 43 48 48
20 19 16 14 14 17 16 20 20 21 23 23 20 16 18 18 20 21 23 23 24 25 26 27 29 29 27 27 28 29 30 30 31 33 33 34 36 38 42 46 48 44 46
20 19 17 16 18 18 18 20 20 22 22 23 23 22 21 20 18 20 24 24 25 27 29 31 31 31 30 28 30 33 33 34 36 37 38 40 38 33 39 43 46 45 48
18 15 18 21 24 23 20 21 21 21 22 23 25 26 20 19 20 18 19 23 25 23 24 26 26 27 29 30 27 26 28 33 35 35 35 37 41 46 40 41 43 41 48
23 20 22 25 26 26 23 23 24 26 25 26 27 28 27 22 25 27 26 26 26 27 29 29 24 27 30 33 35 34 34 32 35 37 39 41 42 42 44 44 45 49 50
25 25 26 27 25 24 22 22 24 24 26 27 28 27 26 25 22 22 23 23 23 24 26 27 26 26 33 32 29 32 34 36 37 39 42 44 46 48 49 51 52 54 56
24 24 25 23 23 23 22 22 22 23 23 24 24 22 20 20 20 20 20 20 19 19 20 22 24 27 30 32 35 37 39 41 44 46 49 51 52 54 56 58 60 61 63
26 26 26 25 23 22 20 20 20 20 20 21 21 21 20 19 18 18 20 22 24 26 28 29 30 32 34 36 39 43 46 49 51 54 56 59 60 61 62 63 64 65 66
24 23 24 23 22 21 22 22 21 20 21 21 20 19 19 20 21 23 24 26 28 30 31 33 35 38 41 44 46 49 52 53 55 57 58 59 59 61 62 63 64 64 64
24 25 24 22 22 22 21 21 20 20 19 18 18 18 19 22 23 25 27 29 30 32 34 37 40 43 46 49 52 54 55 56 55 55 56 56 56 56 55 55 54 54 54
26 26 24 23 22 18 18 19 17 14 13 19 18 19 21 24 26 28 30 32 33 35 38 41 45 49 52 54 57 57 55 53 51 51 51 51 49 49 49 49 49 48 48
24 25 22 19 17 14 13 14 17 17 16 21 21 23 24 27 30 32 34 36 39 42 46 49 50 50 48 47 49 48 47 47 48 50 47 43 41 40 42 42 39 37 34
23 22 20 18 18 18 18 20 20 19 17 22 24 25 28 30 32 34 36 39 43 45 49 52 53 51 48 45 45 46 46 46 46 42 37 34 36 36 34 33 30 27 23
23 23 21 19 19 18 20 23 24 23 20 24 27 30 31 33 36 39 42 45 47 47 47 46 44 43 40 41 42 44 45 41 36 32 30 32 30 29 28 25 22 19 15
28 25 22 19 22 23 22 19 20 21 24 27 30 32 34 38 40 44 46 48 46 42 39 37 36 36 37 37 38 38 37 33 29 25 26 26 26 25 23 20 17 15 13
34 23 19 17 23 19 18 20 23 25 27 28 31 34 37 40 43 45 45 42 37 33 31 32 33 33 33 32 32 33 32 30 25 23 24 24 21 19 18 16 15 12 6
23 19 19 15 16 17 21 24 25 28 30 33 35 38 41 43 43 40 35 32 29 29 29 30 30 29 29 30 31 31 31 27 24 20 19 18 17 15 12 10 4 5 8
16 13 12 14 17 18 21 24 26 29 32 35 39 41 41 37 33 30 29 28 27 28 29 28 27 27 26 27 28 29 28 24 20 17 14 11 8 6 6 6 5 3 2
Wind_Direction
14 5 14 4 11 21 24 6 26 8 355 60 246 186 221 220 208 217 223 223 228 224 224 227 234 239 244 244 254 262 276 235 268 270 262 263 269 271 269 273 268 283 266
358 2 5 359 358 6 12 21 25 17 323 311 356 121 69 197 221 218 227 228 225 229 228 237 242 243 239 238 251 256 262 270 279 274 266 262 261 263 268 264 272 261 276
338 346 348 347 344 347 357 359 14 22 34 315 267 222 251 167 216 236 254 251 230 224 227 230 237 236 235 240 251 247 258 265 264 269 267 263 259 255 268 265 272 274 275
330 337 338 338 342 348 350 348 357 17 31 30 43 257 258 255 255 266 272 264 266 262 258 252 258 256 249 251 248 254 257 258 258 253 249 258 265 263 256 266 271 271 279
333 328 326 332 338 344 345 337 353 0 1 23 7 1 16 345 282 264 260 254 247 254 261 266 274 260 254 252 254 252 255 247 255 253 246 264 266 257 256 259 257 275 273
314 320 318 321 328 339 332 324 322 327 316 314 319 327 331 331 322 313 301 293 278 267 261 260 262 270 271 271 272 258 260 263 261 263 267 267 262 250 260 244 266 272 272
312 314 313 315 315 327 328 322 281 296 286 293 290 291 295 302 301 296 289 282 281 278 274 273 275 275 277 280 279 271 284 285 280 272 277 269 260 259 262 260 258 265 273
309 314 307 301 305 309 312 291 297 298 293 295 297 294 292 296 304 307 291 290 291 287 282 277 275 280 282 284 285 279 273 269 265 265 263 263 261 260 259 266 273 273 272
310 314 308 298 304 290 296 302 302 285 288 298 305 302 300 293 298 302 299 296 293 291 288 291 291 289 287 285 281 278 279 280 279 274 272 271 270 270 269 270 271 270 268
308 310 310 296 298 302 287 296 301 299 295 298 301 295 294 293 297 300 301 297 293 291 291 292 292 291 286 283 283 281 280 276 276 277 274 272 271 270 269 272 276 282 276
304 312 315 319 326 321 313 303 298 296 298 296 295 290 288 289 282 294 293 286 288 288 291 296 291 288 284 282 283 284 285 285 284 282 282 284 278 279 292 289 292 282 274
299 308 313 321 324 323 305 296 288 280 281 282 293 291 286 289 291 290 294 300 304 297 299 301 292 282 287 284 284 287 295 298 291 288 285 284 281 285 287 283 283 281 275
293 302 307 315 316 314 303 296 290 279 287 284 281 285 279 279 288 293 299 300 295 293 297 296 292 277 274 276 275 284 304 301 295 288 290 293 294 290 290 287 285 284 285
287 293 301 308 306 306 302 296 293 291 291 290 288 289 288 290 290 279 279 283 287 291 294 294 293 289 282 293 298 296 293 292 289 287 285 284 284 284 282 282 282 281 279
293 295 301 303 304 300 297 295 292 291 289 289 291 291 289 288 286 288 288 288 290 289 291 292 293 290 291 291 292 293 293 293 291 289 287 286 285 284 282 282 281 280 279
296 298 301 301 301 298 294 296 292 288 288 288 290 292 294 295 296 297 296 295 294 295 295 294 293 293 293 294 293 293 293 294 293 291 290 289 288 287 286 284 282 280 280
297 300 300 297 294 294 293 289 286 287 287 286 285 288 289 291 293 292 291 291 293 294 295 296 297 298 298 297 297 297 297 295 293 291 288 284 282 281 281 280 280 280 280
300 301 298 294 292 292 289 286 286 285 286 286 286 290 291 290 293 295 297 298 298 299 300 301 301 301 301 300 300 299 298 297 295 294 293 293 292 291 289 287 286 285 283
297 294 294 292 291 290 285 285 283 276 279 277 281 289 297 300 300 299 300 301 302 302 302 302 303 304 304 304 303 303 303 303 301 299 298 297 296 294 293 291 291 288 285
287 286 287 288 287 280 271 270 275 281 286 290 297 296 298 301 303 306 306 306 308 308 307 307 307 307 307 306 305 306 306 306 302 302 304 301 300 301 303 303 300 294 287
283 281 280 279 277 282 275 273 276 275 277 283 290 296 301 304 306 307 306 305 307 307 308 309 310 310 310 310 311 311 310 308 307 306 306 307 309 310 306 305 304 299 286
277 272 267 267 271 273 276 282 289 292 292 295 301 304 306 307 307 308 311 311 312 312 312 313 313 314 314 315 315 314 313 313 310 312 315 318 317 313 313 313 312 300 283
279 265 247 261 271 274 283 286 291 290 295 299 301 304 305 307 310 311 313 313 313 313 312 313 315 317 319 321 321 321 319 317 314 315 323 321 321 321 322 325 318 307 297
284 273 251 261 273 286 291 291 291 290 292 297 297 300 304 308 310 313 312 311 311 312 314 317 320 322 325 328 331 336 330 326 318 316 315 317 321 325 331 328 322 300 256
239 242 257 254 266 272 280 281 284 290 296 300 303 304 308 311 312 311 309 310 312 314 317 319 320 321 326 330 336 339 341 336 336 330 330 330 332 333 332 327 323 86 80
265 254 271 273 272 273 274 278 287 293 298 302 307 309 309 310 310 309 309 311 313 314 315 317 320 320 324 329 336 342 347 344 341 345 347 349 358 18 38 42 46 63 123